Regional Weather Roundup
Issued by NWS

Home | Current Version | Previous Version | Text Only | Print | Product List | Glossary On
Versions: 1 2 3 4 5 6 7 8 9 10 11 12 13 14 15 16 17 18 19 20 21 22 23 24 25 26 27 28 29 30 31 32 33 34 35 36 37 38 39 40 41 42 43 44 45 46 47 48 49 50
865
ASUS44 KLIX 180401
RWRLA
LOUISIANA WEATHER ROUNDUP
NATIONAL WEATHER SERVICE NEW ORLEANS LA
1100 PM CDT WED SEP 17 2014

NOTE: "FAIR" INDICATES FEW OR NO CLOUDS BELOW 12,000 FEET WITH NO
      SIGNIFICANT WEATHER AND/OR OBSTRUCTIONS TO VISIBILITY.
      SKY/WX - SKY CONDITION AND SIGNIFICANT WEATHER.
      TMP - AIR TEMPERATURE.    DP   - DEWPOINT TEMPERATURE.
      RH  - RELATIVE HUMIDITY.  PRES - PRESSURE.
      HX  - HEAT INDEX.         WCI  - WIND CHILL INDEX.

*  THESE STATIONS ARE NOT NWS OR FAA STATIONS AND ARE NOT UNDER
   NWS QUALITY CONTROL.

LAZ040-048-061>063-065-066-069-180500-
SOUTHEAST LOUISIANA

CITY           SKY/WX    TMP DP  RH WIND       PRES   REMARKS
N.O. AUDUBON     N/A     79  76  91 MISG        N/A
N.O. INTL ARPT PTCLDY    76  71  85 W5        29.93S
N.O. LAKEFRONT CLEAR     81  73  76 SW6       29.93S
N.O. DOWNTOWN* FAIR      81  72  74 CALM      29.93F
SLIDELL        PTCLDY    74  72  93 CALM      29.93S
BATON ROUGE    PTCLDY    77  73  87 CALM      29.93S
BOOTHVILLE     CLEAR     79  76  90 CALM      29.93S
BELLE CHASSE   PTCLDY    75  71  87 CALM      29.92F
BOGALUSA*      FAIR      77  73  87 CALM      29.95S
GALLIANO*      NOT AVBL
NEW ROADS*     FAIR      76  74  96 CALM      29.93S FOG
GONZALES*      FAIR      74  74 100 CALM      29.92F
HAMMOND*       NOT AVBL
HOUMA*         CLEAR    N/A N/A N/A CALM      29.93S
PORT FOURCHON* CLEAR     82  73  74 CALM      29.96F

$$

LAZ041-044-053-054-180500-
SOUTHWEST LOUISIANA

CITY           SKY/WX    TMP DP  RH WIND       PRES   REMARKS
LAKE CHARLES   MOCLDY    76  75  97 CALM      29.92F
LAFAYETTE      CLEAR     77  76  96 W3        29.93S
PATTERSON      CLEAR     75  73  94 NW5         N/A
SALT POINT       N/A     80  76  87 CALM      29.92F
NEW IBERIA     PTCLDY    76  74  93 CALM      29.93F
CHENAULT AIRPK NOT AVBL

$$

LAZ027-028-180500-
CENTRAL LOUISIANA

CITY           SKY/WX    TMP DP  RH WIND       PRES   REMARKS
FORT POLK      PTCLDY    74  72  93 CALM      29.93F
ALEXANDRIA INT CLEAR     76  74  93 CALM      29.92R
ALEXANDRIA     CLEAR     74  72  93 CALM      29.93S

$$

LAZ001-002-180500-
NORTHWEST LOUISIANA

CITY           SKY/WX    TMP DP  RH WIND       PRES   REMARKS
SHREVEPORT     PTCLDY    77  71  82 S5        29.91F
BARKSDALE AFB  CLEAR     75  71  88 SE6       29.92S
DTN SHREVEPORT CLEAR     78  71  79 E5        29.91F

$$

LAZ014-016-180500-
NORTHEAST LOUISIANA

CITY           SKY/WX    TMP DP  RH WIND       PRES   REMARKS
MONROE         MOCLDY    75  72  90 CALM      29.93S
TALLULAH       MOCLDY    73  70  90 CALM      29.92S

$$




USA.gov is the U.S. government's official web portal to all federal, state and local government web resources and services.